Orbital Elements at Epoch 2459000.5 (2020-May-31.0) TDB
Reference: JPL 27 (heliocentric ecliptic J2000)
Element | Value | Uncertainty (1-sigma) | Units |
e | .0162934049309471 | 3.8048e-08 | |
a | 2.773257921132423 | 1.6157e-08 | au |
q | 2.728072106845456 | 1.0518e-07 | au |
i | 2.443332263480496 | 3.8227e-06 | deg |
node | 278.8656014856028 | 0.00011018 | deg |
peri | 316.172941869507 | 0.0001841 | deg |
M | 46.41747130199217 | 0.00014598 | deg |
tp | 2458782.998229336915 (2019-Oct-26.49822934) | 0.00068469 | TDB |
period | 1686.878566246887 4.62 | 1.4741e-05 4.036e-08 | d yr |
n | .2134119237764453 | 1.865e-09 | deg/d |
Q | 2.81844373541939 | 1.642e-08 | au |
|
| | Orbit Determination Parameters
Additional Information
|